Location: Czekanka
(50.4925°N, 19.2643°E)
Time: 12:14:06
(UTC+00:00)

Cosmos 2341 Rocket - Pass Details

Date: 15 June 2024
Orbit: 969 x 1003 km, 82.9° (Epoch: 15 July)

Event Time Altitude Azimuth Distance (km) Brightness Sun altitude
Exits shadow 00:28:17 17° 196° (SSW) 2,258 5.3 -12.6°
Maximum altitude 00:33:15 76° 280° (W) 1,004 4.0 -12.3°
Drops below altitude 10° 00:39:31 10° 7° (N) 2,729 7.6 -11.9°
Sets 00:42:03 0° 10° (N) 3,684 8.6 -11.7°
